This demonstration page uses our WeatherBlox Daily Observations layout. Learn more.

Left ArrowRight Arrow

36.17497, -115.13722

Hourly Observations for March 5, 2019

Temp ( °F °C ) Dew Point ( °F °C ) Humidity (%) Winds ( mph kmh ) Pressure ( in mb ) Visibility ( mi km ) Precip ( " mm )
12:53 am 00:53 Clear 55 12.8 40 4.4 57 57 Calm 30.04 1017 10 16 0.00 0.00
1:53 am 01:53 Clear 55 12.8 40 4.4 57 57 SE 3 6 30.04 1017 10 16 0.00 0.00
2:53 am 02:53 Clear 54 12.2 40 4.4 59 59 Calm 30.02 1017 10 16 0.00 0.00
3:53 am 03:53 Clear 53 11.7 40 4.4 61 61 SSW 3 6 30.03 1017 10 16 0.00 0.00
4:53 am 04:53 Clear 53 11.7 40 4.4 61 61 SW 5 7 30.04 1017 10 16 0.00 0.00
5:53 am 05:53 Clear 53 11.7 40 4.4 61 61 S 5 7 30.05 1018 10 16 0.00 0.00
6:53 am 06:53 Sunny 53 11.7 41 5 64 64 Calm 30.06 1018 10 16 0.00 0.00
7:53 am 07:53 Sunny 55 12.8 41 5 59 59 Calm 30.09 1019 10 16 0.00 0.00
8:53 am 08:53 Sunny 58 14.4 40 4.4 51 51 ESE 7 11 30.10 1019 10 16 0.00 0.00
9:53 am 09:53 Cloudy 61 16.1 39 3.9 44 44 SE 9 15 30.09 1019 10 16 0.00 0.00
10:53 am 10:53 Cloudy 62 16.7 38 3.3 41 41 SE 9 15 30.07 1018 10 16 0.00 0.00
11:53 am 11:53 Partly Cloudy 63 17.2 38 3.3 40 40 SE 5 7 30.04 1017 10 16 0.00 0.00
12:53 pm 12:53 Sunny 67 19.4 37 2.8 33 33 SE 12 19 30.00 1016 10 16 0.00 0.00
1:53 pm 13:53 Sunny 69 20.6 37 2.8 31 31 E 7 11 29.96 1014 10 16 0.00 0.00
2:53 pm 14:53 Mostly Cloudy 69 20.6 35 1.7 29 29 ESE 8 13 29.93 1014 10 16 0.00 0.00
4:53 pm 16:53 Mostly Cloudy 69 20.6 33 0.6 26 26 E 13 20 29.89 1012 10 16 0.00 0.00
5:53 pm 17:53 Cloudy 68 20 36 2.2 31 31 ESE 7 11 29.90 1013 10 16 0.00 0.00
7:53 pm 19:53 Partly Cloudy 66 18.9 35 1.7 32 32 SW 8 13 29.95 1014 10 16 0.00 0.00
8:53 pm 20:53 Cloudy with Light Rain 65 18.3 39 3.9 39 39 W 17 28 29.93 1014 10 16 0.00 0.03
10:53 pm 22:53 Cloudy 63 17.2 40 4.4 43 43 SSW 8 13 29.94 1014 10 16 0.00 0.03
11:53 pm 23:53 Cloudy 60 15.6 45 7.2 58 58 Calm 29.94 1014 10 16 0.00 0.03

Powered by AerisWeather